Columbus, OH

7:03 PM EST on January 23, 2018 (GMT -0500)
Port Columbus International

Weather History for KCMH - April, 2013

Change the Weather History Date:

Wednesday, April 10, 2013

  Actual Average Record
Temperature  
Mean Temperature 72 °F 51 °F  
Max Temperature 82 °F 62 °F 84 °F (2011)
Min Temperature 61 °F 41 °F 20 °F (1997)
Degree Days  
Heating Degree Days 0 14  
Month to date heating degree days 149 157  
Since 1 July heating degree days 4858 4868  
Cooling Degree Days 7 0  
Month to date cooling degree days 11 0  
Year to date cooling degree days 11 0  
Growing Degree Days 21 (Base 50)    
Moisture  
Dew Point 59 °F    
Average Humidity 69    
Maximum Humidity 90    
Minimum Humidity 47    
Precipitation  
Precipitation 0.22 in 0.12 in 1.59 in (1990)
Month to date precipitation 0.22 1.13  
Year to date precipitation 7.41 9.13  
Snow  
Snow 0.00 in 0.00 in 2.00 in (1890)
Month to date snowfall T 0.6  
Since 1 July snowfall 41.2 26.2  
Snow Depth 0.00 in    
Sea Level Pressure  
Sea Level Pressure 29.89 in    
Wind  
Wind Speed 13 mph (SW)    
Max Wind Speed 41 mph    
Max Gust Speed 54 mph    
Visibility 9 miles    
Events Rain , Thunderstorm    
T = Trace of Precipitation, MM = Missing Value Source: NWS Daily Summary

Daily Weather History Graph

Daily Weather History Graph

Search for Another Location

Airport or City:

Trip Planner

Search our weather history database for the weather conditions in past years. The results will help you decide how hot, cold, wet, or windy it might be!

Date:

Astronomy

Apr. 10, 2013 Rise Set
Actual Time 7:00 AM EDT 8:05 PM EDT
Civil Twilight 6:33 AM EDT 8:33 PM EDT
Nautical Twilight 6:00 AM EDT 9:06 PM EDT
Astronomical Twilight 5:25 AM EDT 9:40 PM EDT
Moon 6:56 AM EDT (4/10) 8:39 PM EDT (4/10)
Length of Visible Light 13h 59m
Length of Day
13h 04m
New Moon, 0% of the Moon is Illuminated
Apr 10
New Moon
Apr 18
First Quarter
Apr 25
Full
May 2
Last Quarter
May 9
New

Hourly Weather History & Observations

Time (EDT) Temp. Heat Index Dew Point Humidity Pressure Visibility Wind Dir Wind Speed Gust Speed Precip Events Conditions
12:51 AM 69.1 °F - 55.0 °F 61% 29.94 in 10.0 mi SW 11.5 mph - N/A   Partly Cloudy
1:51 AM 68.0 °F - 55.9 °F 65% 29.94 in 10.0 mi SW 9.2 mph - N/A   Clear
2:51 AM 66.9 °F - 55.9 °F 68% 29.93 in 10.0 mi SSW 6.9 mph - N/A   Partly Cloudy
3:51 AM 66.0 °F - 55.9 °F 70% 29.92 in 10.0 mi South 5.8 mph - N/A   Mostly Cloudy
4:51 AM 64.9 °F - 55.9 °F 73% 29.91 in 10.0 mi South 6.9 mph - N/A   Partly Cloudy
5:51 AM 64.9 °F - 57.0 °F 75% 29.91 in 10.0 mi SSW 6.9 mph - N/A   Partly Cloudy
6:51 AM 66.0 °F - 57.0 °F 73% 29.92 in 10.0 mi SSW 6.9 mph - N/A   Overcast
7:51 AM 66.9 °F - 57.0 °F 70% 29.92 in 10.0 mi SSW 11.5 mph - N/A   Mostly Cloudy
8:51 AM 69.1 °F - 57.0 °F 65% 29.92 in 10.0 mi SSW 17.3 mph - N/A   Mostly Cloudy
9:51 AM 73.0 °F - 57.0 °F 57% 29.91 in 10.0 mi SSW 16.1 mph 21.9 mph N/A   Mostly Cloudy
10:51 AM 75.9 °F - 57.9 °F 54% 29.90 in 10.0 mi SW 21.9 mph 29.9 mph N/A   Overcast
11:49 AM 75.2 °F - 60.8 °F 61% 29.92 in 2.0 mi WSW 19.6 mph 26.5 mph 0.00 in Rain , Thunderstorm Thunderstorms and Rain
11:51 AM 75.0 °F - 61.0 °F 62% 29.91 in 2.0 mi WSW 20.7 mph 26.5 mph 0.00 in Rain , Thunderstorm Thunderstorms and Rain
11:54 AM 73.4 °F - 62.6 °F 69% 29.91 in 1.0 mi SW 19.6 mph 27.6 mph 0.02 in Rain , Thunderstorm Thunderstorms and Rain
11:56 AM 71.6 °F - 64.4 °F 78% 29.91 in 5.0 mi SW 15.0 mph 27.6 mph 0.10 in Rain , Thunderstorm Thunderstorms and Rain
12:06 PM 71.6 °F - 64.4 °F 78% 29.91 in 5.0 mi WSW 5.8 mph 21.9 mph 0.22 in   Haze
12:51 PM 75.9 °F - 62.1 °F 62% 29.88 in 10.0 mi SW 20.7 mph 28.8 mph 0.22 in   Overcast
1:51 PM 75.9 °F - 62.1 °F 62% 29.88 in 10.0 mi SW 13.8 mph 24.2 mph 0.00 in   Overcast
2:51 PM 81.0 °F 82.2 °F 63.0 °F 54% 29.84 in 10.0 mi SSW 21.9 mph 26.5 mph N/A   Mostly Cloudy
3:51 PM 82.0 °F 83.1 °F 63.0 °F 52% 29.81 in 10.0 mi SSW 21.9 mph 28.8 mph N/A   Overcast
4:51 PM 81.0 °F 81.6 °F 60.1 °F 49% 29.81 in 10.0 mi SW 23.0 mph 33.4 mph N/A   Overcast
5:51 PM 82.0 °F 82.4 °F 60.1 °F 47% 29.78 in 10.0 mi SW 18.4 mph 32.2 mph N/A   Overcast
6:51 PM 80.1 °F 80.7 °F 59.0 °F 48% 29.79 in 10.0 mi SSW 18.4 mph 24.2 mph N/A   Overcast
7:33 PM 69.8 °F - 57.2 °F 64% 29.87 in 10.0 mi NNW 36.8 mph 54.1 mph N/A   Overcast
7:51 PM 66.0 °F - 57.0 °F 73% 29.86 in 10.0 mi North 18.4 mph 33.4 mph 0.00 in Rain Light Rain
8:51 PM 62.1 °F - 57.9 °F 86% 29.87 in 10.0 mi NNE 8.1 mph - 0.00 in   Overcast
9:51 PM 62.1 °F - 57.0 °F 84% 29.84 in 10.0 mi East 8.1 mph - N/A   Overcast
10:51 PM 60.8 °F - 57.2 °F 88% 29.85 in 10.0 mi East 4.6 mph - N/A   Overcast
11:51 PM 62.1 °F - 57.9 °F 86% 29.87 in 10.0 mi North 5.8 mph - N/A   Overcast